Rantoul, IL

10:22 AM CST on December 06, 2016 (GMT -0600)
Rantoul

Weather History for KTIP - July, 2013

Change the Weather History Date:

Wednesday, July 24, 2013

  Actual Average (KCMI) Record (KCMI)
Temperature  
Mean Temperature 67 °F 74 °F  
Max Temperature 77 °F 84 °F 94 °F (2012)
Min Temperature 57 °F 64 °F 53 °F (2003)
Degree Days  
Heating Degree Days 0 0  
Month to date heating degree days 0  
Since 1 June heating degree days 17  
Since 1 July heating degree days 0  
Cooling Degree Days 2 9  
Month to date cooling degree days 225  
Year to date cooling degree days 540  
Since 1 June cooling degree days 448  
Growing Degree Days 17 (Base 50)    
Moisture  
Dew Point 51 °F    
Average Humidity 58    
Maximum Humidity 80    
Minimum Humidity 33    
Precipitation  
Precipitation 0.00 in 0.13 in 1.25 in (2016)
Month to date precipitation 3.49  
Year to date precipitation 22.82  
Sea Level Pressure  
Sea Level Pressure 30.02 in    
Wind  
Wind Speed 5 mph (NE)    
Max Wind Speed 13 mph    
Max Gust Speed 16 mph    
Visibility 10 miles    
Events      
T = Trace of Precipitation, MM = Missing Value Source: NWS Daily Summary

Daily Weather History Graph

Daily Weather History Graph

Search for Another Location

Airport or City:

Trip Planner

Search our weather history database for the weather conditions in past years. The results will help you decide how hot, cold, wet, or windy it might be!

Date:

Astronomy

Jul. 24, 2013 Rise Set
Actual Time 5:43 AM CDT 8:14 PM CDT
Civil Twilight 5:11 AM CDT 8:45 PM CDT
Nautical Twilight 4:33 AM CDT 9:24 PM CDT
Astronomical Twilight 3:49 AM CDT 10:07 PM CDT
Moon 9:19 PM CDT (7/24) 8:03 AM CDT (7/24)
Length of Visible Light 15h 33m
Length of Day
14h 31m
Waning Gibbous, 94% of the Moon is Illuminated
Jul 24
Waning Gibbous
Jul 29
Last Quarter
Aug 6
New
Aug 14
First Quarter
Aug 20
Full

Hourly Weather History & Observations

Time (CDT) Temp. Dew Point Humidity Pressure Visibility Wind Dir Wind Speed Gust Speed Precip Events Conditions
12:15 AM 64.4 °F 56.1 °F 74% 29.97 in 10.0 mi NE 4.6 mph - N/A   Clear
12:35 AM 63.7 °F 55.8 °F 75% 29.96 in 10.0 mi NE 5.8 mph - N/A   Clear
12:55 AM 63.5 °F 55.6 °F 75% 29.96 in 10.0 mi NE 4.6 mph - N/A   Clear
1:15 AM 62.8 °F 55.2 °F 76% 29.97 in 10.0 mi NNE 5.8 mph - N/A   Clear
1:35 AM 62.6 °F 55.4 °F 77% 29.97 in 10.0 mi NNE 3.5 mph - N/A   Clear
1:55 AM 62.6 °F 54.7 °F 75% 29.97 in 10.0 mi NNE 3.5 mph - N/A   Clear
2:15 AM 61.7 °F 54.5 °F 77% 29.97 in 10.0 mi North 3.5 mph - N/A   Clear
2:35 AM 61.7 °F 54.5 °F 77% 29.97 in 10.0 mi NNE 5.8 mph - N/A   Clear
2:55 AM 61.5 °F 54.1 °F 77% 29.97 in 10.0 mi North 6.9 mph - N/A   Clear
3:15 AM 61.3 °F 53.8 °F 76% 29.98 in 10.0 mi NNE 5.8 mph - N/A   Clear
3:35 AM 60.8 °F 53.6 °F 77% 29.98 in 10.0 mi NNE 3.5 mph - N/A   Clear
3:55 AM 59.9 °F 53.6 °F 80% 29.98 in 10.0 mi NNE 4.6 mph - N/A   Clear
4:15 AM 59.9 °F 52.5 °F 77% 29.98 in 10.0 mi NNE 4.6 mph - N/A   Clear
4:35 AM 59.4 °F 51.8 °F 76% 29.99 in 10.0 mi NNE 5.8 mph - N/A   Clear
4:55 AM 59.0 °F 51.3 °F 75% 29.99 in 10.0 mi NNE 5.8 mph - N/A   Clear
5:15 AM 58.3 °F 51.1 °F 77% 30.00 in 10.0 mi NNE 5.8 mph - N/A   Clear
5:35 AM 57.9 °F 50.9 °F 77% 30.01 in 10.0 mi NNE 3.5 mph - N/A   Clear
5:55 AM 57.7 °F 50.9 °F 78% 30.01 in 10.0 mi NNE 4.6 mph - N/A   Clear
6:15 AM 58.1 °F 51.4 °F 78% 30.01 in 10.0 mi NNE 5.8 mph - N/A   Clear
6:35 AM 58.5 °F 51.6 °F 78% 30.01 in 10.0 mi NNE 6.9 mph - N/A   Clear
6:55 AM 58.6 °F 51.6 °F 77% 30.01 in 10.0 mi NE 6.9 mph - N/A   Clear
7:15 AM 60.3 °F 51.1 °F 72% 30.01 in 10.0 mi NE 10.4 mph - N/A   Clear
7:35 AM 60.3 °F 50.5 °F 70% 30.02 in 10.0 mi NE 9.2 mph - N/A   Clear
7:55 AM 61.3 °F 50.9 °F 69% 30.02 in 10.0 mi NE 9.2 mph - N/A   Clear
8:15 AM 61.9 °F 50.9 °F 67% 30.02 in 10.0 mi NE 10.4 mph - N/A   Clear
8:35 AM 62.6 °F 50.0 °F 63% 30.03 in 10.0 mi ENE 11.5 mph - N/A   Clear
8:55 AM 63.9 °F 50.9 °F 63% 30.03 in 10.0 mi NE 10.4 mph - N/A   Clear
9:15 AM 64.6 °F 50.4 °F 60% 30.04 in 10.0 mi NE 11.5 mph - N/A   Clear
9:35 AM 64.8 °F 50.5 °F 60% 30.05 in 10.0 mi NNE 10.4 mph - N/A   Clear
9:55 AM 65.8 °F 50.7 °F 58% 30.04 in 10.0 mi ENE 9.2 mph - N/A   Clear
10:15 AM 67.1 °F 50.9 °F 56% 30.05 in 10.0 mi East 11.5 mph - N/A   Clear
10:35 AM 67.3 °F 51.1 °F 56% 30.04 in 10.0 mi NE 10.4 mph - N/A   Clear
10:55 AM 68.2 °F 50.7 °F 54% 30.03 in 10.0 mi NE 12.7 mph - N/A   Clear
11:15 AM 69.3 °F 50.7 °F 52% 30.04 in 10.0 mi NE 8.1 mph 16.1 mph N/A   Clear
11:35 AM 70.0 °F 50.9 °F 51% 30.04 in 10.0 mi ENE 12.7 mph 16.1 mph N/A   Clear
11:55 AM 70.9 °F 50.7 °F 49% 30.04 in 10.0 mi NE 9.2 mph - N/A   Clear
12:15 PM 71.6 °F 50.7 °F 48% 30.04 in 10.0 mi NNE 8.1 mph - N/A   Clear
12:35 PM 72.3 °F 50.5 °F 46% 30.05 in 10.0 mi ENE 8.1 mph - N/A   Clear
12:55 PM 73.2 °F 49.6 °F 43% 30.05 in 10.0 mi ENE 9.2 mph - N/A   Clear
1:15 PM 73.4 °F 49.6 °F 43% 30.05 in 10.0 mi NE 4.6 mph - N/A   Clear
1:35 PM 74.8 °F 50.0 °F 42% 30.05 in 10.0 mi NNE 11.5 mph 16.1 mph N/A   Clear
1:55 PM 74.5 °F 48.7 °F 40% 30.04 in 10.0 mi Calm Calm - N/A   Clear
2:15 PM 74.7 °F 49.8 °F 42% 30.04 in 10.0 mi NNE 8.1 mph - N/A   Clear
2:35 PM 74.8 °F 48.9 °F 40% 30.04 in 10.0 mi Calm Calm - N/A   Clear
2:55 PM 75.4 °F 48.6 °F 39% 30.03 in 10.0 mi Calm Calm - N/A   Clear
3:15 PM 75.6 °F 48.6 °F 38% 30.03 in 10.0 mi Calm Calm - N/A   Clear
3:35 PM 75.7 °F 48.6 °F 38% 30.03 in 10.0 mi Calm Calm - N/A   Clear
3:55 PM 75.6 °F 46.8 °F 36% 30.03 in 10.0 mi North 3.5 mph - N/A   Clear
4:15 PM 76.1 °F 46.9 °F 36% 30.02 in 10.0 mi Calm Calm - N/A   Clear
4:35 PM 76.1 °F 46.9 °F 36% 30.02 in 10.0 mi Calm Calm - N/A   Clear
4:55 PM 77.0 °F 46.8 °F 34% 30.02 in 10.0 mi Calm Calm - N/A   Clear
5:15 PM 76.3 °F 48.2 °F 37% 30.02 in 10.0 mi Calm Calm - N/A   Clear
5:35 PM 75.7 °F 48.0 °F 37% 30.02 in 10.0 mi Calm Calm - N/A   Clear
5:55 PM 75.7 °F 45.5 °F 34% 30.02 in 10.0 mi Calm Calm - N/A   Clear
6:15 PM 75.9 °F 45.0 °F 33% 30.02 in 10.0 mi Calm Calm - N/A   Clear
6:35 PM 76.1 °F 46.2 °F 35% 30.03 in 10.0 mi Calm Calm - N/A   Clear
6:55 PM 74.8 °F 48.6 °F 39% 30.03 in 10.0 mi Calm Calm - N/A   Clear
7:15 PM 74.3 °F 48.4 °F 40% 30.03 in 10.0 mi Calm Calm - N/A   Clear
7:35 PM 73.0 °F 48.7 °F 42% 30.04 in 10.0 mi Calm Calm - N/A   Clear
7:55 PM 71.8 °F 49.8 °F 46% 30.04 in 10.0 mi Calm Calm - N/A   Clear
8:15 PM 70.5 °F 50.2 °F 48% 30.05 in 10.0 mi Calm Calm - N/A   Clear
8:35 PM 68.7 °F 50.7 °F 53% 30.05 in 10.0 mi Calm Calm - N/A   Clear
8:55 PM 67.5 °F 50.9 °F 55% 30.05 in 10.0 mi Calm Calm - N/A   Clear
9:15 PM 66.2 °F 50.7 °F 57% 30.05 in 10.0 mi Calm Calm - N/A   Clear
9:35 PM 65.5 °F 50.4 °F 58% 30.05 in 10.0 mi Calm Calm - N/A   Clear
9:55 PM 65.3 °F 50.0 °F 58% 30.06 in 10.0 mi Calm Calm - N/A   Clear
10:15 PM 64.6 °F 50.2 °F 60% 30.06 in 10.0 mi Calm Calm - N/A   Clear
10:35 PM 63.9 °F 50.5 °F 62% 30.06 in 10.0 mi Calm Calm - N/A   Clear
10:55 PM 63.5 °F 50.9 °F 63% 30.07 in 10.0 mi Calm Calm - N/A   Clear
11:15 PM 62.6 °F 51.1 °F 66% 30.07 in 10.0 mi Calm Calm - N/A   Clear
11:35 PM 62.2 °F 51.1 °F 67% 30.07 in 10.0 mi Calm Calm - N/A   Clear
11:55 PM 61.0 °F 51.3 °F 70% 30.07 in 10.0 mi Calm Calm - N/A   Clear